User: anonymous   Login
Location: Artiguedieu
(43.5000°N, 0.5454°E)
Time: 20:17:12
(UTC+00:00)
Language:

RS-44 - Orbit

View from above orbital plane
View from above orbital plane
View from above satellite
View from above satellite

Ground track
Ground track

The orbit data is extracted from the following two-line orbital elements,

1 44909U 19096E   21262.36734525  .00000012  00000-0  71697-5 0  9997
2 44909  82.5214  50.3957 0216649 233.3729 124.7277 12.79711069 80838
Epoch (UTC): 19 September 2021 08:48:58
Eccentricity: 0.0216649
inclination: 82.5214°
perigee height: 1175 km
apogee height: 1510 km
right ascension of ascending node: 50.3957°
argument of perigee: 233.3729°
revolutions per day: 12.79711069
mean anomaly at epoch: 124.7277°
orbit number at epoch: 8083

The dashed part of the orbit path shows where the satellite is in the earth's shadow,  

DLR